Regional Weather Roundup
Issued by NWS

Home | Current Version | Previous Version | Graphics & Text | Print | Product List | Glossary On
Versions: 1 2 3 4 5 6 7 8 9 10 11 12 13 14 15 16 17 18 19 20 21 22 23 24 25 26 27 28 29 30 31 32 33 34 35 36 37 38 39 40 41 42 43 44 45 46 47 48 49 50
000
ASUS45 KTFX 240210
RWRMT
MONTANA REGIONAL WEATHER ROUNDUP
NATIONAL WEATHER SERVICE GREAT FALLS MT
800 PM MDT THU MAR 23 2017

NOTE: "FAIR" INDICATES FEW OR NO CLOUDS BELOW 12000 FEET WITH NO
SIGNIFICANT WEATHER AND/OR OBSTRUCTIONS TO VISIBILITY.

MTZ001>007-043-240300-
WEST OF THE DIVIDE

CITY           SKY/WX    TMP DP  RH WIND       PRES   REMARKS
KALISPELL      CLEAR     40  25  55 SW6       30.01R
MISSOULA       CLEAR     43  26  51 NW13      30.02R
BUTTE          CLEAR     43  19  38 NW3       29.97R
MULLAN PASS    PTCLDY    27  22  81 CALM      29.99R
ANACONDA         N/A     37  19  48 NW3       29.98R
DEER LODGE       N/A     39  21  48 N5        30.01R
EUREKA           N/A     43  21  42 S6        30.02R
HAMILTON         N/A     46  21  36 NW3       30.00R
RONAN            N/A     45  26  47 W2        30.07R
$$

MTZ008-052>055-240300-
SOUTHWEST MONTANA

CITY           SKY/WX    TMP DP  RH WIND       PRES   REMARKS
BOZEMAN        CLEAR     48  23  37 NE5       29.95R
DILLON         CLEAR     46  18  32 N5        29.94R
W YELLOWSTONE  CLOUDY    39  18  41 CALM      29.96R
ENNIS          CLEAR     36  23  60 NE7       30.00R WCI  30
THREE FORKS      N/A     48  48 100 N8        29.95R
TWIN BRIDGES     N/A     47  20  34 N7        29.95R
$$

MTZ009-010-012-014-046-048-049-054-240300-
EAST SLOPES AND CENTRAL MONTANA

CITY           SKY/WX    TMP DP  RH WIND       PRES   REMARKS
CUT BANK       PTCLDY    38  23  55 W14       29.92R WCI  30
GREAT FALLS    CLEAR     42  18  37 W10       29.94R
MALMSTROM AFB  CLEAR     48  19  30 W9        29.94R
HELENA         CLEAR     45  22  40 NW7       29.96R
AUGUSTA          N/A     40  18  41 W14       29.95R
CHOTEAU          N/A     41  19  42 W6G12     29.96R
CONRAD           N/A     41  25  53 W7        29.97R
POWER            N/A     36  18  47 NW6       29.93R WCI  31
$$

MTZ011-013-016-021-045-047-050-051-240300-
NORTH CENTRAL MONTANA

CITY           SKY/WX    TMP DP  RH WIND       PRES   REMARKS
HAVRE          CLOUDY    51  25  36 W8        29.89R
LEWISTOWN      CLEAR     45  17  32 NW6       29.93R
N BAR RANCH    MOCLDY    45  21  39 W5        29.95R
CHINOOK          N/A     46  27  46 CALM      29.89R
FORT BENTON      N/A     48  21  34 MISG      29.93R
GEYSER           N/A     43  20  40 W7        29.93R
GRASS RANGE      N/A     41  22  46 W7        29.90R
WINIFRED         N/A     46  20  36 N6        29.92R
$$

MTZ017>020-022>027-061-062-240300-
NORTHEAST MONTANA

CITY           SKY/WX    TMP DP  RH WIND       PRES   REMARKS
GLASGOW        CLEAR     49  30  48 N6        29.87R
JORDAN           N/A     47  30  51 N9        29.89R
SIDNEY         PTCLDY    47  38  71 N5        29.86R
WOLF POINT     CLOUDY    55  33  43 NW10      29.86R
MALTA          CLEAR     46  28  49 W6        29.88R
PLENTYWOOD       N/A     39  36  87 E7        29.88R
POPLAR           N/A     48  39  71 NE12      29.86R VSB 1/2
$$

MTZ028>42-056>058-240300-
SOUTHCENTRAL AND SOUTHEAST MONTANA

CITY           SKY/WX    TMP DP  RH WIND       PRES   REMARKS
BAKER          MOCLDY    47  38  71 SW14      29.88R
BILLINGS       CLOUDY    50  35  56 S5        29.92R
LIVINGSTON     CLOUDY    40  22  48 W6        29.94R
MILES CITY     MOCLDY    51  39  63 W7        29.88R
BIG TIMBER     MOCLDY    48  21  34 W14G20    29.96R
FORSYTH          N/A     52  36  54 SW5       29.89R
HARLOWTON        N/A     42  23  46 N12       29.93R
LAUREL           N/A     48  31  52 CALM      29.92S
$$

REGIONAL REPORTS...DAKOTAS

CITY           SKY/WX    TMP DP  RH WIND       PRES   REMARKS
WILLISTON      CLOUDY    46  37  71 N6        29.87R
MINOT          PTCLDY    35  31  85 NW8       29.88R WCI  29
DICKINSON      CLOUDY    42  38  85 SW10      29.85R
BEACH            N/A    N/A N/A N/A MISG        N/A
TIOGA          CLOUDY    37  37 100 NE3       29.89R
WATFORD CITY   CLOUDY    46  37  71 CALM      29.86R
BISMARCK       CLOUDY    40  38  93 W5        29.86R
GRAND FORKS    CLOUDY    36  35  96 SW5       29.86R
FARGO          CLOUDY    36  35  96 E5        29.84R
BUFFALO SD       N/A     42  41  96 SW7       29.85R
RAPID CITY     CLOUDY    44  39  82 N21G31    29.87R
$$

REGIONAL REPORTS...WYOMING/IDAHO/WASHINGTON

CITY           SKY/WX    TMP DP  RH WIND       PRES   REMARKS
GILLETTE       CLOUDY    40  32  73 VRB6      29.91R
SHERIDAN       CLOUDY    43  37  79 S7        29.95R
BUFFALO WY     CLOUDY    43  33  68 NW13G24   29.95R
CODY           CLOUDY    43  32  65 SW9       29.96R
YELLOWSTONE LA   N/A     33  21  61 CALM      29.98R
IDAHO FALLS    CLEAR     48  30  49 CALM      29.94R
SALMON         CLEAR     48  19  32 CALM      29.94R
BOISE          CLEAR     51  26  37 N6        30.03R
SPOKANE        PTCLDY    46  27  47 S5        30.02S
$$

REGIONAL REPORTS...ALBERTA

CITY           SKY/WX    TMP DP  RH WIND       PRES   REMARKS
EDMONTON       CLEAR     32  25  74 SE3       29.92R
CALGARY        MOCLDY    36  25  64 N7        29.90R WCI  30
LETHBRIDGE     MOCLDY    45  21  39 W18G25    29.89R
MEDICINE HAT   MOCLDY    54  23  30 N6        29.85R
WATERTON GATE    N/A     39  16  38 SW15G23     N/A  WCI  31
CARDSTON         N/A     43  18  36 W9          N/A
MILK RIVER       N/A     41  23  48 W13         N/A
$$

REGIONAL REPORTS...SASKATCHEWAN

CITY           SKY/WX    TMP DP  RH WIND       PRES   REMARKS
SWIFT CURRENT  CLEAR     43  32  65 N3        29.87R
REGINA         PTCLDY    37  27  65 NE8       29.89R WCI  31
SASKATOON      CLEAR     30  23  74 NE7       29.96R WCI  23
CYPRESS HILLS    N/A     41  19  42 NE2         N/A
VAL MARIE        N/A     39  27  60 W6          N/A
ROCKGLEN         N/A     43  32  65 E2          N/A
$$



USA.gov is the U.S. government's official web portal to all federal, state and local government web resources and services.